www.pogodaiklimat.ru
ПОГОДА в Алаярви Моксы
Время
(UTC), дата
16 3.12
17 3.12
18 3.12
19 3.12
20 3.12
21 3.12
22 3.12
23 3.12
00 4.12
01 4.12
02 4.12
03 4.12
04 4.12
05 4.12
06 4.12
07 4.12
08 4.12
09 4.12
10 4.12
11 4.12
12 4.12
13 4.12
14 4.12
15 4.12
16 4.12
17 4.12
18 4.12
19 4.12
20 4.12
21 4.12
22 4.12
23 4.12
00 5.12
01 5.12
02 5.12
03 5.12
04 5.12
05 5.12
06 5.12
07 5.12
08 5.12
09 5.12
10 5.12
11 5.12
12 5.12
13 5.12
14 5.12
15 5.12
16 5.12
17 5.12
18 5.12
19 5.12
20 5.12
21 5.12
22 5.12
23 5.12
00 6.12
01 6.12
02 6.12
03 6.12
04 6.12
05 6.12
06 6.12
07 6.12
08 6.12
09 6.12
10 6.12
11 6.12
12 6.12
13 6.12
14 6.12
15 6.12
16 6.12
17 6.12
18 6.12
19 6.12
20 6.12
21 6.12
22 6.12
23 6.12
00 7.12
01 7.12
02 7.12
03 7.12
04 7.12
05 7.12
06 7.12
07 7.12
08 7.12
09 7.12
10 7.12
11 7.12
12 7.12
13 7.12
14 7.12
15 7.12
16 7.12
17 7.12
18 7.12
19 7.12
20 7.12
21 7.12
22 7.12
23 7.12
00 8.12
01 8.12
02 8.12
03 8.12
04 8.12
05 8.12
06 8.12
07 8.12
08 8.12
09 8.12
10 8.12
11 8.12
12 8.12
13 8.12
14 8.12
15 8.12
16 8.12
17 8.12
18 8.12
19 8.12
20 8.12
21 8.12
22 8.12
23 8.12
00 9.12
01 9.12
02 9.12
03 9.12
04 9.12
05 9.12
06 9.12
07 9.12
08 9.12
09 9.12
10 9.12
11 9.12
12 9.12
13 9.12
14 9.12
15 9.12
16 9.12
17 9.12
18 9.12
19 9.12
20 9.12
21 9.12
22 9.12
23 9.12
00 10.12
01 10.12
02 10.12
03 10.12
04 10.12
05 10.12
06 10.12
07 10.12
08 10.12
09 10.12
10 10.12
11 10.12
12 10.12
13 10.12
14 10.12
15 10.12
16 10.12
Ветер
(напр.,м/с)
Видим. Явления Облачность Т
(С)
Тd
(С)
f
(%)
Тe
(С)
Тes
(С)
Комфортность P
(гПа)
Po
(гПа)
Тmin
(С)
Tmax
(С)
R
(мм)
R24
(мм)
S
(см)
2200 м слаб. снег 10/0 600 м
[]
-1.9 -2.1 99 1000.6 979.4
800 м снег 10/0 200 м
[]
-1.7 -2.0 98 999.9 978.7 0.7
600 м сильн. снег {ливн. осадки} 10/0 200 м
[]
-1.5 -1.7 99 999.2 978.0 -8.1 -1.5 2
3800 м слаб. снег 10/10 100 м
[]
-1.2 -1.4 99 998.1 977.0 0.7
20 км слаб. ливневой снег 10/10 200 м
[]
-0.9 -1.1 99 997.6 976.5 0.1
4300 м слаб. ливневой снег 10/0 100 м
[]
-0.6 -0.7 99 997.3 976.3 0.1
12 км в посл. час снег 10/0 100 м
[]
-0.4 -0.5 99 996.6 975.6 0.1
6000 м дымка 10/0 100 м
[]
+0.1 0.0 99 995.8 974.9
8000 м дымка {ливн. осадки, снег} 10/0 100 м
[]
+0.3 +0.3 100 994.9 974.0
1300 м дымка ?/? +0.4 +0.3 99 995.2 974.3 0.1
300 м слаб. ливневой дождь ?/? +0.5 +0.5 100 994.6 973.7
1000 м слаб. дождь ?/? +0.6 +0.6 100 994.4 973.5 0.4
11 км слаб. ливневой дождь 10/0 50 м
[]
+0.8 +0.8 100 994.0 973.1 0.4
20 км в посл. час дождь 10/0 50 м
[]
+2.1 +2.1 100 993.7 973.0 0.2
20 км {ливн. осадки, дождь} 9/9 100 м
[]
+3.0 +3.0 100 994.2 973.5 -1.5 +3.1 <0.5
20 км 6/0 100 м
[]
+3.1 +2.9 99 995.0 974.2
20 км ясно +3.2 +2.8 97 995.2 974.5
20 км 4/0
[]
+3.3 +2.9 97 995.7 974.9
20 км 6/1
[]
+3.7 +2.9 95 996.1 975.4
20 км 1/0
[]
+3.8 +2.8 93 996.9 976.2
20 км ясно +3.8 +2.7 93 997.9 977.2
20 км 6/0
[]
+3.6 +2.5 93 998.3 977.6
20 км 1/0 300 м
[]
+3.0 +2.1 94 998.2 977.3
20 км 1/0 300 м
[]
+2.9 +2.2 95 998.6 977.8
20 км ясно +3.0 +2.1 94 998.9 978.1
20 км ясно +2.7 +1.9 94 998.7 977.9
20 км 1/0
[]
+2.7 +1.9 94 999.1 978.2 +2.5 +3.8
20 км 1/0
[]
+2.3 +1.5 94 999.0 978.1
20 км 9/6
[]
+2.4 +1.6 94 998.6 977.8
20 км 9/0
[]
+2.7 +1.7 93 998.0 977.1
20 км 9/0
[]
+2.7 +1.7 93 996.5 975.7
20 км 8/0
[]
+2.9 +1.6 91 994.5 973.8
20 км 9/1 300 м
[]
+3.0 +1.7 91 993.8 973.1
20 км 9/0 200 м
[]
+2.3 +1.3 93 992.9 972.1
20 км 9/0 300 м
[]
+2.5 +1.3 92 992.3 971.6
20 км 9/0 300 м
[]
+2.9 +1.5 90 991.8 971.1
20 км 9/0 300 м
[]
+3.0 +1.4 89 991.6 970.9
20 км 9/0 300 м
[]
+2.6 +1.3 91 991.4 970.7
20 км 9/9 300 м
[]
+2.6 +1.3 91 991.8 971.1 +2.2 +3.3 <0.5
20 км 9/8 300 м
[]
+2.5 +1.3 92 992.0 971.2
20 км 9/8 300 м
[]
+2.4 +1.3 92 991.7 971.0
20 км 9/9 200 м
[]
+2.3 +1.2 92 991.3 970.6
20 км 9/0 200 м
[]
+2.3 +1.2 92 991.0 970.3
20 км слаб. ливневой дождь 10/0 200 м
[]
+2.4 +1.2 92 989.9 969.2
20 км 10/0 200 м
[]
+2.5 +1.2 91 988.8 968.1
20 км 10/0 300 м
[]
+2.7 +1.1 89 987.4 966.8
20 км 10/0 300 м
[]
+2.9 +1.0 87 986.5 965.9
20 км 10/0 300 м
[]
+2.9 +1.1 88 985.9 965.3
20 км 10/0 600 м
[]
+3.0 +1.0 87 985.2 964.7
20 км 10/0 300 м
[]
+3.2 +0.9 85 984.8 964.2
20 км 10/0 300 м
[]
+3.2 +0.7 84 984.2 963.7 +2.2 +3.3
20 км 9/0 300 м
[]
+3.3 +0.7 83 983.6 963.1
20 км слаб. дождь 10/0 300 м
[]
+2.7 +1.3 90 983.6 963.1 0.2
20 км в посл. час дождь со снегом 9/1 600 м
[]
+2.3 +1.3 93 983.8 963.3 0.2
20 км в посл. час дождь 9/8 300 м
[]
+2.8 +1.0 88 983.8 963.2
20 км 9/1 300 м
[]
+2.5 +0.8 89 984.1 963.5
20 км {ливн. осадки, дождь} 3/0 600 м
[]
+1.8 +0.5 91 983.9 963.3
20 км 4/1 300 м
[]
+1.3 +0.5 94 984.3 963.6
20 км 4/4 1500 м
[]
+1.0 +0.2 94 984.2 963.5
20 км ясно +0.4 0.0 97 984.0 963.3
20 км 5/0 300 м
[]
+0.5 +0.2 98 983.6 962.9
20 км 9/6 300 м
[]
+0.8 +0.6 99 983.0 962.3
19 км 9/0 100 м
[]
+0.7 +0.5 99 982.9 962.2 +0.3 +3.3 0
12 км 9/0 100 м
[]
+0.8 +0.7 99 982.7 962.0
13 км 10/10 100 м
[]
+1.6 +1.5 99 982.7 962.1
9000 м дымка 10/0 100 м
[]
+1.8 +1.7 99 982.1 961.5
4800 м дымка 10/0 100 м
[]
+1.7 +1.6 99 982.1 961.5
9000 м дымка 10/0 100 м
[]
+1.9 +1.8 99 982.1 961.6
12 км ливневой дождь 10/0 100 м
[]
+2.1 +2.0 99 982.2 961.7
19 км в посл. час осадки 10/0 100 м
[]
+2.1 +1.9 99 982.3 961.7
20 км 9/0 100 м
[]
+1.8 +1.6 99 982.3 961.7
20 км {ливн. осадки} 9/6 50 м
[]
+1.4 +1.2 99 983.0 962.4
20 км 9/9 50 м
[]
+1.2 +1.0 99 983.4 962.7
20 км 10/0
[]
+1.0 +0.9 99 983.6 963.0
20 км {ливн. осадки} 10/0
[]
+0.7 +0.5 99 983.8 963.1 +0.6 +2.2
16 км 9/9 50 м
[]
+0.9 +0.8 99 984.3 963.7
500 м туман ?/? +0.9 +0.9 100 984.8 964.1
1300 м в посл. час морось ?/? +1.1 +1.1 100 985.1 964.4
19 км в посл. час туман 9/0 50 м
[]
+1.3 +1.3 100 985.7 965.1
20 км 6/0 100 м
[]
+0.4 +0.2 99 986.2 965.5
20 км {метель} 9/0 100 м
[]
+0.3 +0.2 99 986.6 965.9
20 км 3/0 50 м
[]
-0.4 -0.5 99 986.8 966.0
20 км 3/0
[]
-0.9 -1.0 99 987.0 966.2
20 км 1/0 100 м
[]
-0.8 -0.9 99 987.0 966.2
20 км ясно -0.9 -1.0 99 986.8 966.0
20 км 9/0 100 м
[]
-1.3 -1.4 99 986.9 966.0
20 км 9/0 100 м
[]
-1.5 -1.7 99 986.8 965.9 -1.5 +1.4 0
20 км 10/0 100 м
[]
-1.4 -1.5 99 986.8 965.9
20 км 9/0 100 м
[]
-1.2 -1.4 99 986.3 965.4
20 км 9/4 100 м
[]
-1.0 -1.2 99 985.8 964.9
20 км 9/0 100 м
[]
-0.7 -0.8 99 985.1 964.3
3200 м слаб. снег 10/0 100 м
[]
-0.3 -0.4 99 984.3 963.5 0.1
2600 м слаб. снег {дождь} 10/10 50 м
[]
-0.1 -0.2 99 983.5 962.8 0.5
10 км слаб. снег 9/3 600 м
[]
-0.2 -0.3 99 982.9 962.2 0.2
17 км слаб. снег 10/10 50 м
[]
-0.5 -0.7 99 981.9 961.2 0.1
16 км слаб. ливневой снег 10/10 50 м
[]
-0.6 -0.6 100 981.9 961.2
2700 м слаб. снег 10/10 50 м
[]
-0.6 -0.7 99 981.3 960.6 0.3
4200 м слаб. снег 10/10 100 м
[]
-0.6 -0.6 100 981.2 960.5 0.2
20 км слаб. снег 10/0 100 м
[]
-0.4 -0.5 99 980.9 960.2 -1.6 -0.1 0.1
5000 м слаб. снег 10/0 50 м
[]
-0.3 -0.3 100 980.9 960.2
1300 м в посл. час снег ?/? -0.4 -0.4 100 980.8 960.1
700 м слаб. ливневой снег ?/? -0.7 -0.7 100 980.9 960.2
1900 м слаб. дождь со снегом ?/? -0.8 -0.8 100 980.8 960.1
1600 м дымка 9/0 50 м
[]
-0.8 -0.8 100 981.1 960.4
18 км в посл. час зёрна {ливн. осадки} 10/0 50 м
[]
-0.8 -0.8 100 981.1 960.3
20 км 10/0 100 м
[]
-1.0 -1.1 99 981.1 960.3
20 км в посл. час снег 10/0 100 м
[]
-1.3 -1.5 99 981.3 960.5
20 км в посл. час переохл. осадки (гололёд) 10/0 100 м
[]
-1.5 -1.7 99 981.3 960.5
20 км в посл. час снег 10/0 100 м
[]
-1.8 -2.0 99 981.6 960.8
20 км 10/0 100 м
[]
-2.0 -2.2 99 981.8 960.9
20 км {ливн. осадки, снег} 10/0 100 м
[]
-2.1 -2.3 99 982.0 961.2 -2.1 -0.2 0
20 км 10/0 100 м
[]
-2.2 -2.4 99 982.2 961.4
20 км 10/0 100 м
[]
-2.2 -2.3 99 983.1 962.2
20 км 10/0 100 м
[]
-2.0 -2.2 99 983.3 962.4
20 км 10/0 100 м
[]
-2.0 -2.2 99 982.7 961.8
20 км 10/0 100 м
[]
-1.9 -2.1 99 982.7 961.9
20 км {ливн. осадки, снег} 10/0 200 м
[]
-1.3 -1.6 98 982.8 962.0
20 км 10/0 200 м
[]
-1.1 -1.4 98 982.4 961.7
20 км 10/10 200 м
[]
-1.0 -1.3 98 982.0 961.2
20 км {ливн. осадки, дождь} 10/10 200 м
[]
-1.0 -1.3 98 981.5 960.7
20 км 9/0 200 м
[]
-1.0 -1.4 97 980.7 960.0
20 км 9/0 200 м
[]
-1.0 -1.4 97 979.7 959.0
20 км {ливн. осадки, дождь} 9/0 200 м
[]
-1.4 -1.9 96 978.3 957.6 -2.2 -1.0
20 км 9/0 200 м
[]
-1.3 -1.8 96 977.5 956.8
6000 м слаб. снег 10/0 200 м
[]
-1.3 -1.7 97 975.4 954.8
3000 м слаб. снег 9/9 100 м
[]
-1.4 -1.7 98 972.8 952.2 0.2
1700 м слаб. снег 10/0 100 м
[]
-1.1 -1.3 99 970.5 949.9 0.5
400 м сильн. снег ?/? -0.9 -1.0 99 968.3 947.8 2
2400 м слаб. снег 10/0 200 м
[]
-0.5 -0.5 100 967.1 946.7 0.9
2400 м слаб. ливневой снег 10/0 100 м
[]
+0.2 +0.2 100 966.3 946.0 0.2
13 км слаб. ливневой дождь 10/0 200 м
[]
+0.7 +0.7 100 965.7 945.4 0.1
2500 м слаб. снег 10/0 200 м
[]
+0.5 +0.5 100 965.0 944.7 1
600 м снег 10/0 200 м
[]
+0.3 +0.2 99 964.2 943.9 2
400 м сильн. снег 10/0 200 м
[]
+0.2 +0.2 100 963.5 943.3 2
1000 м снег {ливн. осадки} 10/0 100 м
[]
+0.2 +0.2 100 964.3 944.0 -1.4 +0.7 2 <0.5
3600 м слаб. дождь 10/0 100 м
[]
+0.2 +0.2 100 966.9 946.5 0.4
1900 м слаб. снег 10/0 100 м
[]
0.0 0.0 100 968.8 948.4 0.4
2200 м слаб. снег {дождь} 10/0 100 м
[]
-0.2 -0.2 100 970.3 949.9 0.1
3300 м слаб. снег 10/0 100 м
[]
-0.3 -0.3 100 972.4 951.9 0.3
20 км слаб. снег 10/10 200 м
[]
-0.6 -0.8 99 974.7 954.1 0.2
20 км слаб. снег {дождь} 9/0 200 м
[]
-1.1 -1.4 98 977.0 956.3
9000 м слаб. снег 10/0 200 м
[]
-1.7 -2.1 97 978.9 958.2
10 км слаб. снег 10/0 200 м
[]
-2.3 -2.7 97 980.8 960.0
20 км слаб. ливневой снег 10/0 200 м
[]
-2.7 -3.1 97 982.4 961.5
20 км слаб. ливневой снег 10/0 300 м
[]
-2.9 -3.4 96 984.3 963.3
20 км слаб. ливневой снег 10/0 200 м
[]
-2.9 -3.4 96 985.6 964.6
20 км слаб. ливневой снег 10/0 300 м
[]
-3.1 -3.8 95 986.9 965.9 -3.1 +0.2
20 км в посл. час снег 10/0 200 м
[]
-3.4 -4.0 96 988.2 967.2
20 км слаб. ливневой снег 10/0 200 м
[]
-3.9 -4.5 96 989.7 968.5
20 км {ливн. осадки, снег} 10/0 300 м
[]
-4.0 -4.7 95 991.1 969.9
20 км слаб. ливневой снег 10/0 300 м
[]
-4.3 -5.0 95 992.1 970.9
20 км 10/0 300 м
[]
-4.4 -5.2 94 993.3 972.1
20 км слаб. ливневой снег 10/0 200 м
[]
-4.5 -5.2 95 994.6 973.3
20 км слаб. ливневой снег 10/0 600 м
[]
-4.7 -5.3 96 995.7 974.4
14 км слаб. снег 10/10 200 м
[]
-4.3 -4.8 96 996.8 975.5
6000 м слаб. снег 10/0 100 м
[]
-4.1 -4.5 97 998.0 976.7
2200 м слаб. снег 10/10 100 м
[]
-3.9 -4.3 97 999.1 977.7 0.3
3800 м слаб. снег 9/0 300 м
[]
-3.7 -4.1 97 1000.5 979.2 0.5
20 км слаб. снег 9/9 100 м
[]
-4.1 -4.5 97 1001.9 980.5 -4.7 -3.1 0.1 <0.5
18 км 9/0 50 м
[]
-4.6 -5.0 97 1003.1 981.6
2500 м дымка 9/0 50 м
[]
-5.0 -5.4 97 1004.7 983.1
20 км {снег} 6/0 50 м
[]
-5.1 -5.7 96 1006.0 984.4
20 км ясно -6.1 -6.9 94 1007.0 985.3
20 км 9/0 300 м
[]
-6.2 -6.9 95 1008.3 986.5
20 км {снег} 9/0 300 м
[]
-5.8 -6.3 96 1009.4 987.7
20 км 9/0 300 м
[]
-6.2 -6.9 95 1010.5 988.8
20 км 9/0 300 м
[]
-6.8 -7.6 94 1011.0 989.2
20 км 9/0 300 м
[]
-7.1 -7.9 94 1012.1 990.3
20 км 10/10 50 м
[]
-7.4 -8.1 95 1013.1 991.1
Местоположение метеостанции Алаярви Моксы (Финляндия): широта 63.09 долгота 24.26 высота над уровнем моря 171 м.
В архиве по умолчанию представлена погода в Алаярви Моксы за последнюю неделю. Архивные данные за месяц целиком и за предыдущие месяцы, начиная с января 2011 года, Вы можете получить, выбрав интересующий диапазон дат из раскрывающегося списка и нажав кнопку "Найти!".
*Определитесь, кто Вы:
Внимание! Время в таблицах - всемирное. Для получения местного времени необходимо прибавить поправку, которая равна 1 ч.
Смотрите также архив погоды в соседних городах и на ближайших метеорологических станциях:
Партнеры нашего сайта:      
Пояснения к столбцам:
  • Ветер - указаны скорость ветра в м/с - средняя за 10 мин, порывы в срок и между сроками (в фигурных скобках) и направление, откуда дует ветер: С - северный,
  • СВ - северо-восточный, В - восточный, ЮВ - юго-восточный, Ю - южный, ЮЗ - юго-западный, З - западный, СЗ - северо-западный.
  • Видимость - горизонтальная дальность видимости в метрах или километрах. При видимости от 1 до 10 км при отсутствии осадков обычно наблюдается дымка, при ухудшении видимости до 1 км и менее - туман. В сухую погоду видимость может ухудшаться дымом, пылью или мглою.
  • Явления - указаны атмосферные явления, наблюдавшиеся в срок или в последний час перед сроком; фигурными скобками обозначены явления, наблюдавшиеся между сроками (за 1-3 часа до срока); квадратными скобками обозначены град или гололедные отложения с указанием их диаметра в мм.
  • Облачность - указаны через наклонную черту общая и нижняя облачность в баллах и высота нижней границы облаков в метрах; квадратными скобками обозначены формы облаков: Ci - перистые, Cs - перисто-слоистые, Cc - перисто-кучевые, Ac - высококучевые, As - высокослоистые, Sc - слоисто-кучевые, Ns - слоисто-дождевые, Cu - кучевые, Cb - кучево-дождевые. Подробнее классификацию облаков см. в Атласе облаков (PDF).
  • T - Температура воздуха - температура, измеренная на высоте 2 м над землей.
  • Td - Температура точки росы - температура, при понижении до которой содержащийся в воздухе водяной пар достигнет насыщения.
  • f - Относительная влажность воздуха - влажноcть воздуха, измеренная на высоте 2 м над землей.
  • Te - Эффективная температура - температура, которую ощущает одетый по сезону человек в тени. Характеристика душности погоды. При расчете учитывается влияние влажности воздуха и скорости ветра на теплоощущения человека.
  • Tes - Эффективная температура на солнце - температура, которую ощущает человек, с поправкой на солнечный нагрев. Характеристика знойности погоды. Зависит от высоты солнца над горизонтом, облачности и скорости ветра. Ночью, в пасмурную погоду, а также при ветре 12 м/с и более поправка равна нулю.
  • P - Атмосферное давление - приведенное к уровню моря атмосферное давление.
  • Po - Атмосферное давление - измеренное на уровне метеостанции атмосферное давление.
  • Tmin - Минимальная температура - минимум температуры воздуха на высоте 2 м над землей.
  • Tmax - Максимальная температура - максимум температуры воздуха на высоте 2 м над землей.
  • R - Количество осадков - Количество выпавших осадков за период времени, мм. При наведении курсора мыши на число - период времени, за который выпало указанное количество осадков.
  • R24 - Количество осадков - Количество выпавших осадков за 24 часа, мм.
  • S - Снежный покров - Высота снежного покрова, см. При наведении курсора мыши на число - состояние снежного покрова и степень покрытия местности в баллах.